This is the latest recevied weather packets stored in our database for station/object YO8PIC-12. If no packets are shown the sender has not sent any weather packets the latest 10 day(s).
| Time | Temp. | Humidity | Pressure | Rain* | Wind** | Luminosity | Snow |
|---|---|---|---|---|---|---|---|
| 1787858955 | 19.44° C | 65% | 1028 hPa | - | - | - | - |
| 1787858355 | 19.44° C | 66% | 1028 hPa | - | - | - | - |
| 1787857755 | 19.44° C | 65% | 1028 hPa | - | - | - | - |
| 1787857154 | 20° C | 64% | 1027.8 hPa | - | - | - | - |
| 1787856554 | 20° C | 65% | 1027.8 hPa | - | - | - | - |
| 1787855955 | 20° C | 65% | 1027.8 hPa | - | - | - | - |
| 1787855354 | 19.44° C | 65% | 1027.9 hPa | - | - | - | - |
| 1787854755 | 19.44° C | 64% | 1027.8 hPa | - | - | - | - |
| 1787854154 | 19.44° C | 65% | 1027.7 hPa | - | - | - | - |
| 1787853554 | 20° C | 65% | 1027.6 hPa | - | - | - | - |
| 1787852955 | 20° C | 64% | 1027.4 hPa | - | - | - | - |
| 1787852354 | 20° C | 64% | 1027.4 hPa | - | - | - | - |
| 1787851754 | 20.56° C | 63% | 1027.3 hPa | - | - | - | - |
| 1787851154 | 21.11° C | 62% | 1027.3 hPa | - | - | - | - |
| 1787850554 | 21.11° C | 61% | 1027.1 hPa | - | - | - | - |
| 1787849955 | 21.11° C | 61% | 1027 hPa | - | - | - | - |
| 1787849354 | 21.11° C | 61% | 1026.9 hPa | - | - | - | - |
| 1787848754 | 21.67° C | 60% | 1027 hPa | - | - | - | - |
| 1787848154 | 22.22° C | 58% | 1026.8 hPa | - | - | - | - |
| 1787847554 | 22.22° C | 58% | 1026.8 hPa | - | - | - | - |
| 1787846954 | 22.22° C | 58% | 1026.9 hPa | - | - | - | - |
| 1787846354 | 22.78° C | 56% | 1026.8 hPa | - | - | - | - |
| 1787845754 | 22.78° C | 57% | 1027 hPa | - | - | - | - |
| 1787845154 | 23.33° C | 57% | 1027 hPa | - | - | - | - |
| 1787844554 | 23.33° C | 57% | 1027 hPa | - | - | - | - |
* Rain since midnight (hover to see other rain measurements)
** Current wind speed in m/s (hover to see current wind gust speed)